TOURFACTS.DK  
Stats and Facts from Tour de France.

Tour de France 2019 starts in 347 days
  Riders   Stages   Teams   Summits   Yearly  


 
Search by year

After 2018 - Stage 14:
 15000 starters.
  5163 different riders.
  639 teams.
  2246 stages.
  456 restdays.
  441957.60 km.
  5678 abandonnees.


Top 3
GC
Christopher Froome86:20:55
Rigoberto Urán86:21:49
Romain Bardet86:23:15
Climb
Warren Barguil169 pt.
Primoz Roglic80 pt.
Thomas De Gendt64 pt.
Sprint
Michael Matthews359 pt.
André Greipel234 pt.
Edvald Boasson Hagen220 pt.
Youth
Simon Yates86:27:09
Louis Meintjes86:29:15
Emanuel Buchmann86:54:16
Facts from Tour de France 2002
  |   Stages.  |   Stage winners.  |   Days in yellow  |   Average speed.  |   Route.  |   Teams.  |   All riders.  |   Rookies.  |  

  |   Withdrawls.  |   GC.  |   Polka  |   Green  |   White  |   Summits. (In tour)  |   Miscellaneous.  |  

Stage 11 on July 18th. 2002
         Owning:    Lance Armstrong    
Pick a stage:  Pro 1 2 3 4 5 6 7 8 9 10 11 12 13 14 15 16 17 18 19 20
From: Pau    To: La MongieDist:158.00 km.
Cat: 4Côte de Louvie JuzonFRAEmmanuel Magnien
5 points
 
Cat: HCol de l'AubisqueFRALaurent Jalabert
40 points
 
Cat: 1La MongieUSALance Armstrong
30 points
 

Average speed for all riders in stage:  34,062 km./hr.
    Place:Name:Team:Time:Km/h:
USALance ArmstrongUSAUS Postal Service04:21:57  +  00:00:00=36,190 
2 SUILaurent DufauxITAAlessio04:21:57  +  00:00:00=36,190 
3 GERJens VoigtFRACredit Agricole04:21:57  +  00:00:00=36,190 
ESPJoseba BelokiESPO.N.C.E.-Eroski04:22:04  +  00:00:07=36,174 
ESPRoberto HerasUSAUS Postal Service04:22:10  +  00:00:13=36,160 
6 ESPFrancisco ManceboESPibanesto.com04:23:13  +  00:01:16=36,016 
7 URSRaimondas RumsasITALampre-Daikin04:23:13  +  00:01:16=36,016 
8 ESPÓscar SevillaESPKelme-Costa Blanca04:23:20  +  00:01:23=36,000 
9 ITAIvan BassoITAFassa Bortolo04:23:20  +  00:01:23=36,000 
10 KAZAndrei KivilevFRACofidis Credit Par Telephone04:23:31  +  00:01:34=35,975 
11 FRALaurent JalabertDNKTeam CSC-Tiscali04:23:46  +  00:01:49=35,941 
12 PORJosé AzevedoESPO.N.C.E.-Eroski04:23:49  +  00:01:52=35,934 
13 ESPIgor GonzalezESPO.N.C.E.-Eroski04:23:51  +  00:01:54=35,930 
14 FRAChristophe MoreauFRACredit Agricole04:23:54  +  00:01:57=35,923 
15 ITAMassimiliano LelliFRACofidis Credit Par Telephone04:23:54  +  00:01:57=35,923 
16 FRADavid MoncoutiéFRACofidis Credit Par Telephone04:23:56  +  00:01:59=35,918 
17 ESPUnai OsaESPibanesto.com04:23:56  +  00:01:59=35,918 
18 ESPHaimar ZubeldiaESPEuskaltel - Euskadi04:23:59  +  00:02:02=35,911 
19 FRAStéphane GoubertFRAJean Delatour04:24:20  +  00:02:23=35,864 
20 ESPMarcos SerranoESPO.N.C.E.-Eroski04:24:21  +  00:02:24=35,862 
21 ESPCarlos SastreDNKTeam CSC-Tiscali04:24:21  +  00:02:24=35,862 
22 COLSantiago BoteroESPKelme-Costa Blanca04:24:21  +  00:02:24=35,862 
23 FRANicolas VogondyFRAfdjeux.com04:24:21  +  00:02:24=35,862 
24 BELAxel MerckxBELDomo-Farm Frites04:24:30  +  00:02:33=35,841 
25 ITAIvan GottiITAAlessio04:24:38  +  00:02:41=35,823 
26 USALevi LeipheimerNLDRabobank04:24:38  +  00:02:41=35,823 
27 ITAWladimir BelliITAFassa Bortolo04:24:45  +  00:02:48=35,807 
28 FRAJean-Cyril RobinFRAfdjeux.com04:24:57  +  00:03:00=35,780 
29 USATyler HamiltonDNKTeam CSC-Tiscali04:25:11  +  00:03:14=35,749 
30 MARRichard VirenqueBELDomo-Farm Frites04:25:11  +  00:03:14=35,749 
31 FRALaurent LefèvreFRAJean Delatour04:25:19  +  00:03:22=35,731 
32 RUSAlexandre BotcharovFRAAg2r Prevoyance04:25:38  +  00:03:41=35,688 
33 USAKevin LivingstonUSATeam Telekom04:26:01  +  00:04:04=35,637 
34 UKRSerhiy HoncharITAFassa Bortolo04:26:03  +  00:04:06=35,632 
35 ESPJosé Enrique GutierrezESPKelme-Costa Blanca04:26:16  +  00:04:19=35,603 
36 SUIBeat ZbergNLDRabobank04:26:26  +  00:04:29=35,581 
37 ESPIsidro NozalESPO.N.C.E.-Eroski04:26:26  +  00:04:29=35,581 
38 ITADario FrigoITATacconi Sport04:26:26  +  00:04:29=35,581 
39 POLPiotr WadeckiBELDomo-Farm Frites04:26:33  +  00:04:36=35,566 
40 DENNicki SørensenDNKTeam CSC-Tiscali04:26:33  +  00:04:36=35,566 
41 ESPJosé GomezESPKelme-Costa Blanca04:26:33  +  00:04:36=35,566 
42 ESPJosé RubieraUSAUS Postal Service04:27:10  +  00:05:13=35,483 
43 BELChristophe BrandtBELLotto-Adecco04:27:18  +  00:05:21=35,466 
44 ITAAndrea PeronDNKTeam CSC-Tiscali04:27:21  +  00:05:24=35,459 
45 ESPDaniel AtienzaFRACofidis Credit Par Telephone04:27:46  +  00:05:49=35,404 
46 ESPDavid LatasaESPibanesto.com04:28:03  +  00:06:06=35,367 
47 NEDAddy EngelsNLDRabobank04:28:14  +  00:06:17=35,342 
48 ESPSantiago BlancoESPibanesto.com04:28:33  +  00:06:36=35,301 
49 FRAWalter BénéteauFRABonjour04:28:33  +  00:06:36=35,301 
50 POLDariusz BaranowskiESPibanesto.com04:28:33  +  00:06:36=35,301 
51 RUSDenis MenchovESPibanesto.com04:28:33  +  00:06:36=35,301 
52 ESPRoberto LaisekaESPEuskaltel - Euskadi04:28:33  +  00:06:36=35,301 
53 USABobby JulichUSATeam Telekom04:28:43  +  00:06:46=35,279 
54 ESPDavid EtxebarriaESPEuskaltel - Euskadi04:29:17  +  00:07:20=35,205 
55 MLTDavid MillarFRACofidis Credit Par Telephone04:29:20  +  00:07:23=35,198 
56 UKRVolodymir GustovITAFassa Bortolo04:29:27  +  00:07:30=35,183 
57 GERJörg JakscheESPO.N.C.E.-Eroski04:29:32  +  00:07:35=35,172 
58 GERGrischa NiermannNLDRabobank04:29:39  +  00:07:42=35,157 
59 ITAMarzio BruseghinESPibanesto.com04:29:39  +  00:07:42=35,157 
60 NEDMichael BoogerdNLDRabobank04:29:39  +  00:07:42=35,157 
61 RUSGuennadi MikhailovBELLotto-Adecco04:30:03  +  00:08:06=35,105 
62 FRALaurent BrochardFRAJean Delatour04:30:19  +  00:08:22=35,070 
63 USAGeorge HincapieUSAUS Postal Service04:30:50  +  00:08:53=35,003 
64 URSViatcheslav EkimovUSAUS Postal Service04:30:50  +  00:08:53=35,003 
65 HUNLaszlo BodrogiITAMapei-Quick Step04:30:50  +  00:08:53=35,003 
66 BELMario AertsBELLotto-Adecco04:30:58  +  00:09:01=34,986 
67 FRAPatrice HalgandFRAJean Delatour04:31:26  +  00:09:29=34,926 
68 AUSBradley McGeeFRAfdjeux.com04:31:42  +  00:09:45=34,891 
69 FRAEmmanuel MagnienFRABonjour04:32:23  +  00:10:26=34,804 
70 ESPMikel PraderaESPO.N.C.E.-Eroski04:32:36  +  00:10:39=34,776 
71 FRAJérôme BernardFRAJean Delatour04:32:49  +  00:10:52=34,749 
72 GERRolf AldagUSATeam Telekom04:33:09  +  00:11:12=34,706 
73 FRAChristophe MenginFRAfdjeux.com04:33:21  +  00:11:24=34,681 
74 DDRErik ZabelUSATeam Telekom04:34:20  +  00:12:23=34,557 
75 ESPJavier PascualESPibanesto.com04:34:20  +  00:12:23=34,557 
76 ITAEddy MazzoleniITATacconi Sport04:35:15  +  00:13:18=34,441 
77 ESPIñigo ChaurreauFRAAg2r Prevoyance04:35:46  +  00:13:49=34,377 
78 ESPBingen FernandezFRACofidis Credit Par Telephone04:35:54  +  00:13:57=34,360 
79 COLVictor Hugo PenaUSAUS Postal Service04:36:43  +  00:14:46=34,259 
80 CZEPavel PadrnosUSAUS Postal Service04:36:43  +  00:14:46=34,259 
81 ITAGian Matteo FagniniUSATeam Telekom04:37:14  +  00:15:17=34,195 
82 ITAMarco VeloITAFassa Bortolo04:42:16  +  00:20:19=33,585 
83 ITAMarco SerpelliniITALampre-Daikin04:42:16  +  00:20:19=33,585 
84 ITAGianluca BortolamiITATacconi Sport04:42:16  +  00:20:19=33,585 
85 ESPMiguel Angel MartinezITAMapei-Quick Step04:42:16  +  00:20:19=33,585 
86 BELLudo DierckxsensITALampre-Daikin04:42:16  +  00:20:19=33,585 
87 RSARobert HunterITAMapei-Quick Step04:42:16  +  00:20:19=33,585 
88 BELPaul Van HyfteDNKTeam CSC-Tiscali04:42:16  +  00:20:19=33,585 
89 ESPFrancisco CabelloESPKelme-Costa Blanca04:42:16  +  00:20:19=33,585 
90 FRAJérôme PineauFRABonjour04:42:16  +  00:20:19=33,585 
91 FRACédric VasseurFRACofidis Credit Par Telephone04:42:16  +  00:20:19=33,585 
92 ESPAbraham OlanoESPO.N.C.E.-Eroski04:42:16  +  00:20:19=33,585 
93 FRAFranck BouyerFRABonjour04:42:16  +  00:20:19=33,585 
94 GERUdo BöltsUSATeam Telekom04:42:16  +  00:20:19=33,585 
95 AUTGerhard TrampuschITAMapei-Quick Step04:42:16  +  00:20:19=33,585 
96 BELDave BruylandtsBELDomo-Farm Frites04:42:16  +  00:20:19=33,585 
97 FRAChristophe EdaleineFRAJean Delatour04:42:16  +  00:20:19=33,585 
98 LUXBenoit JoachimUSAUS Postal Service04:42:16  +  00:20:19=33,585 
99 GERSteffen WesemannUSATeam Telekom04:42:16  +  00:20:19=33,585 
100 ESPConstantino ZaballaESPKelme-Costa Blanca04:42:16  +  00:20:19=33,585 
101 FRAAnthony MorinFRACredit Agricole04:42:16  +  00:20:19=33,585 
102 BELSerge BaguetBELLotto-Adecco04:42:16  +  00:20:19=33,585 
103 FRASandy CasarFRAfdjeux.com04:42:16  +  00:20:19=33,585 
104 NEDBram de GrootNLDRabobank04:42:16  +  00:20:19=33,585 
105 GERDanilo HondoUSATeam Telekom04:42:16  +  00:20:19=33,585 
106 FRAChristophe OriolFRAAg2r Prevoyance04:42:16  +  00:20:19=33,585 
107 BELMarc WautersNLDRabobank04:42:16  +  00:20:19=33,585 
108 RUSSerguei IvanovITAFassa Bortolo04:42:16  +  00:20:19=33,585 
109 ITAAndrea BrognaraITAAlessio04:42:16  +  00:20:19=33,585 
110 ESPIñigo CuestaFRACofidis Credit Par Telephone04:42:16  +  00:20:19=33,585 
111 ITACristian MoreniITAAlessio04:42:16  +  00:20:19=33,585 
112 ITAGiuseppe GueriniUSATeam Telekom04:42:16  +  00:20:19=33,585 
113 AUSStuart O'GradyFRACredit Agricole04:42:16  +  00:20:19=33,585 
114 FRAFrédéric GuesdonFRAfdjeux.com04:42:16  +  00:20:19=33,585 
115 FRALudovic TurpinFRAAg2r Prevoyance04:42:16  +  00:20:19=33,585 
116 ESPSamuel SanchezESPEuskaltel - Euskadi04:42:16  +  00:20:19=33,585 
117 USAFloyd LandisUSAUS Postal Service04:43:32  +  00:21:35=33,435 
118 ITAAndrea TafiITAMapei-Quick Step04:44:23  +  00:22:26=33,335 
119 ESPGorka ArrizabalagaESPEuskaltel - Euskadi04:45:28  +  00:23:31=33,209 
120 FRAFranck RenierFRABonjour04:48:43  +  00:26:46=32,835 
121 NEDServais KnavenBELDomo-Farm Frites04:48:43  +  00:26:46=32,835 
122 FRAChristophe AgnoluttoFRAAg2r Prevoyance04:48:43  +  00:26:46=32,835 
123 NEDLeon van BonBELDomo-Farm Frites04:48:43  +  00:26:46=32,835 
124 NORThor HushovdFRACredit Agricole04:48:43  +  00:26:46=32,835 
125 ITAAlessandro CortinovisITALampre-Daikin04:48:43  +  00:26:46=32,835 
126 ESPPedro HorrilloITAMapei-Quick Step04:48:43  +  00:26:46=32,835 
127 URSRaivis BelohvosciksITALampre-Daikin04:48:43  +  00:26:46=32,835 
128 FRAFrédéric BessyFRACredit Agricole04:48:43  +  00:26:46=32,835 
129 ESPJosé Angel VidalESPKelme-Costa Blanca04:48:43  +  00:26:46=32,835 
130 ITAMauro RadaelliITATacconi Sport04:48:43  +  00:26:46=32,835 
131 AUSBaden CookeFRAfdjeux.com04:48:43  +  00:26:46=32,835 
132 FRASébastien HinaultFRACredit Agricole04:48:43  +  00:26:46=32,835 
133 ESPJosé GarciaESPibanesto.com04:48:43  +  00:26:46=32,835 
134 FRAAnthony LangellaFRACredit Agricole04:48:43  +  00:26:46=32,835 
135 ESPAntonio TaulerESPKelme-Costa Blanca04:48:43  +  00:26:46=32,835 
136 CZETomas KonecnyBELDomo-Farm Frites04:48:43  +  00:26:46=32,835 
137 DENJakob PiilDNKTeam CSC-Tiscali04:48:43  +  00:26:46=32,835 
138 FRASylvain ChavanelFRABonjour04:48:43  +  00:26:46=32,835 
139 FRAAndy FlickingerFRAAg2r Prevoyance04:48:43  +  00:26:46=32,835 
140 FRACyril DesselFRAJean Delatour04:48:43  +  00:26:46=32,835 
141 ITAPaolo BossoniITATacconi Sport04:48:43  +  00:26:46=32,835 
142 ESPGorka GonzalezESPEuskaltel - Euskadi04:48:43  +  00:26:46=32,835 
143 ITAMassimo DonatiITATacconi Sport04:48:43  +  00:26:46=32,835 
144 FRAStéphane AugeFRAJean Delatour04:48:43  +  00:26:46=32,835 
145 ITAFabio BaldatoITAFassa Bortolo04:48:43  +  00:26:46=32,835 
146 AUTPeter LuttenbergerITATacconi Sport04:48:43  +  00:26:46=32,835 
147 ITANicola LodaITAFassa Bortolo04:48:43  +  00:26:46=32,835 
148 COLFred RodriguezBELDomo-Farm Frites04:48:43  +  00:26:46=32,835 
149 VENUnai EtxebarriaESPEuskaltel - Euskadi04:48:43  +  00:26:46=32,835 
150 SUIThierry LoderFRAAg2r Prevoyance04:48:43  +  00:26:46=32,835 
151 FRAEddy SeigneurFRAJean Delatour04:48:43  +  00:26:46=32,835 
152 SVKJán SvoradaITALampre-Daikin04:48:43  +  00:26:46=32,835 
153 SUIRubens BertogliatiITALampre-Daikin04:48:43  +  00:26:46=32,835 
154 ITAEnrico CassaniBELDomo-Farm Frites04:48:43  +  00:26:46=32,835 
155 FRADamien NazonFRABonjour04:48:43  +  00:26:46=32,835 
156 ITADavide CasarottoITAAlessio04:49:04  +  00:27:07=32,795 
157 URSArvis PiziksDNKTeam CSC-Tiscali04:49:09  +  00:27:12=32,786 
158 ITAMassimo ApollonioITATacconi Sport04:49:12  +  00:27:15=32,780 
159 BELThierry MarichalBELLotto-Adecco04:49:18  +  00:27:21=32,769 
160 AUSRobbie McEwenBELLotto-Adecco04:49:18  +  00:27:21=32,769 
161 ESPIgor Flores GalarzaESPEuskaltel - Euskadi04:49:23  +  00:27:26=32,759 
162 BELNico MattanFRACofidis Credit Par Telephone04:49:23  +  00:27:26=32,759 
163 ESPIban MayoESPEuskaltel - Euskadi04:49:36  +  00:27:39=32,735 
164 BELHans De ClercqBELLotto-Adecco04:50:00  +  00:28:03=32,690 
165 BELFabien De WaeleITAMapei-Quick Step04:50:06  +  00:28:09=32,678 
166 NEDKarsten KroonNLDRabobank04:50:13  +  00:28:16=32,665 
167 FRAJacky DurandFRAfdjeux.com04:50:35  +  00:28:38=32,624 
168 ITAOscar PozziITAFassa Bortolo04:50:51  +  00:28:54=32,594 
169 NEDErik DekkerNLDRabobank04:51:50  +  00:29:53=32,484 
170 SLOAndrei HauptmanITATacconi Sport04:51:50  +  00:29:53=32,484 
171 FRAJimmy CasperFRAfdjeux.com04:52:22  +  00:30:25=32,425 
172 ITAStefano CasagrandaITAAlessio04:55:35  +  00:33:38=32,072 
173 SLOMartin HvastijaITAAlessio04:57:27  +  00:35:30=31,871 
174 FRAStéphane BergesFRAAg2r Prevoyance05:02:06  +  00:40:09=31,380 
175 MDARuslan IvanovITAAlessio05:03:27  +  00:41:30=31,241 
176 FRAFrançois SimonFRABonjour05:05:39  +  00:43:42=31,016 
177 BRALuciano PagliariniITALampre-Daikin05:06:37  +  00:44:40=30,918 

Withdrawls: 5
 
Rider
Team
Reason
36  ESPSantiago PérezESPKelme-Costa BlancaDid not finish
56  DENMichael SandstødDNKTeam CSC-TiscaliDid not finish
68  USAJonathan VaughtersFRACredit AgricoleDid not finish
95  FRAJacky DurandFRAfdjeux.comDisqualified
186  URSJaan KirsipuuFRAAg2r PrevoyanceDid not finish

Todays birthdays.

1887  Donald Kirkham
1889  Théodore Abada
1911  Guillaume Chavard
1912  Jean Fontenay
1913  Fabien Galateau
1930  Roger Hassenforder
1930  Richard Van Genechten
1936  Philippe Gaudrillet
1937  Joseph Novales
1954  Hans-Peter Jakst
1960  Manuel Ramos
1973  David Etxebarria
1974  Rik Verbrugghe
1976  Jörg Jaksche




Visits: